CDT,Max TemperatureF,Mean TemperatureF,Min TemperatureF,Max Dew PointF,MeanDew PointF,Min DewpointF,Max Humidity, Mean Humidity, Min Humidity, Max Sea Level PressureIn, Mean Sea Level PressureIn, Min Sea Level PressureIn, Max VisibilityMiles, Mean VisibilityMiles, Min VisibilityMiles, Max Wind SpeedMPH, Mean Wind SpeedMPH, Max Gust SpeedMPH,PrecipitationIn, CloudCover, Events, WindDirDegrees
2013-7-1,82,68,55,54,49,45,72,50,26,30.24,30.20,30.18,10,10,5,14,9,17,0.06,1,,30
2013-7-2,80,70,60,55,53,46,77,54,30,30.20,30.15,30.10,10,10,7,12,4,16,0.00,1,,356
2013-7-3,82,70,57,57,53,48,82,53,32,30.10,30.04,29.97,10,10,5,10,3,,0.00,1,,173
2013-7-4,86,74,62,55,54,52,77,51,33,29.98,29.94,29.89,10,10,10,24,12,30,0.00,0,,187
2013-7-5,87,76,66,61,56,52,68,50,35,29.91,29.88,29.84,10,10,10,28,16,33,0.00,2,,184
2013-7-6,89,80,71,66,61,57,69,55,40,29.88,29.86,29.82,10,10,10,22,14,26,0.00,1,,177
2013-7-7,89,79,69,70,64,61,78,62,46,29.97,29.89,29.86,10,10,4,20,9,23,0.00,1,Thunderstorm,218
2013-7-8,87,76,64,66,63,59,83,63,40,30.03,29.99,29.96,10,10,5,9,6,,0.00,0,,57
2013-7-9,84,75,66,70,66,61,83,70,54,30.03,29.95,29.86,10,10,5,40,10,51,0.25,1,Thunderstorm,267
2013-7-10,78,69,60,63,54,48,88,60,34,30.14,30.10,30.04,10,10,8,14,8,17,0.00,0,,5
2013-7-11,84,72,60,59,55,52,77,55,37,30.14,30.07,29.99,10,10,6,20,8,25,0.00,1,,157
2013-7-12,89,78,66,64,59,54,68,54,40,30.02,29.96,29.90,10,10,9,24,17,36,0.00,0,,172
2013-7-13,82,76,71,66,63,59,73,63,57,30.05,29.98,29.94,10,10,10,18,15,24,0.00,1,Thunderstorm,158
2013-7-14,82,75,68,64,60,55,83,62,39,30.21,30.12,30.01,10,10,8,18,11,26,0.00,3,,158
2013-7-15,86,75,64,66,61,57,88,60,40,30.26,30.22,30.18,10,10,8,14,7,17,0.00,2,,169
2013-7-16,87,78,69,66,63,59,83,60,38,30.28,30.24,30.20,10,10,10,16,10,22,0.00,0,,197
2013-7-17,89,80,71,66,65,63,78,59,43,30.32,30.26,30.18,10,10,10,16,10,22,0.00,1,,203
2013-7-18,89,81,73,66,65,64,73,58,43,30.18,30.03,29.88,10,10,10,23,14,32,0.00,0,,206
2013-7-19,82,73,64,64,59,50,78,55,32,29.98,29.93,29.85,10,10,9,20,12,25,0.00,1,Thunderstorm,302
2013-7-20,78,69,60,61,58,52,83,65,47,30.01,29.97,29.92,10,10,3,15,5,21,0.00,1,,229
2013-7-21,84,75,66,64,61,54,83,65,35,29.96,29.88,29.81,10,10,8,12,5,,0.00,2,Thunderstorm,146
2013-7-22,84,74,64,68,62,54,88,67,48,29.94,29.81,29.76,10,10,6,20,11,24,0.05,2,Thunderstorm,276
2013-7-23,71,64,57,55,52,48,82,67,43,30.06,30.01,29.93,10,10,10,12,7,,0.00,1,,358
2013-7-24,78,66,55,55,53,48,82,61,42,30.11,30.07,30.03,10,10,10,12,4,16,0.00,3,,300
2013-7-25,82,73,64,64,60,54,83,65,48,30.05,30.01,29.96,10,10,10,16,9,22,0.00,1,Thunderstorm,210
2013-7-26,68,60,53,61,49,45,83,63,46,30.14,30.09,30.00,10,10,10,24,12,33,0.00,3,,327
2013-7-27,66,55,44,45,41,37,82,60,35,30.14,30.10,30.03,10,10,10,17,9,22,0.00,3,,332
2013-7-28,71,58,44,48,43,37,76,56,38,30.10,30.06,30.03,10,10,8,16,9,23,0.00,0,,333
2013-7-29,73,60,46,54,47,37,82,59,41,30.12,30.10,30.07,10,10,9,14,5,18,0.00,3,,163
2013-7-30,71,66,60,61,58,54,82,73,64,30.14,30.11,30.08,10,9,2,10,5,,0.00,7,,327
2013-7-31,78,66,55,57,54,50,88,66,42,30.18,30.12,30.08,10,10,6,13,5,,0.00,2,,307